Regional Weather Roundup
Issued by NWS State College, PA

Home | Current Version | Previous Version | Text Only | Print | Product List | Glossary On
Versions: 1 2 3 4 5 6 7 8 9 10 11 12 13 14 15 16 17 18 19 20 21 22 23 24 25 26 27 28 29 30 31 32 33 34 35 36 37 38 39 40 41 42 43 44 45 46 47 48 49 50
000
ASUS41 KCTP 220703
RWRCTP

REGIONAL WEATHER ROUNDUP
NATIONAL WEATHER SERVICE STATE COLLEGE PA
200 AM EST SAT NOV 22 2014

Note: "fair" indicates few or no clouds below 12,000 feet with no
significant weather and/or obstructions to visibility.

* = STATION THAT DOES NOT REPORT PRECIPITATION /E.G. RAIN...SNOW...ETC/
    THUNDER OR FOG.

PAZ002>004-007>009-013>016-020>023-029>032-220800-
WESTERN PENNSYLVANIA

CITY           SKY/WX    TMP DP  RH WIND       PRES   REMARKS
ERIE           PTCLDY    21   7  54 S14       30.37F WCI   8
MEADVILLE      PTCLDY    18   7  62 VRB5      30.35F WCI  11
FRANKLIN*      PTCLDY    12   3  67 S7        30.38S WCI   2
NEW CASTLE       N/A     15   8  73 CALM      30.42F
BEAVER COUNTY  NOT AVBL
BUTLER*        PTCLDY    14   7  73 CALM      30.41S
PITTSBURGH INT PTCLDY    16  10  77 CALM      30.40F
PITTSBURGH     CLEAR     20   8  60 S7        30.40S WCI  11
INDIANA*       CLEAR     14   9  79 CALM      30.44S
LATROBE        CLEAR     14  10  85 CALM      30.44S
WASHINGTON CO* CLEAR     10   7  85 CALM      30.41F
$$

PAZ004>006-010>012-017>019-024>028-033>037-041-042-045-046-049>053-220800-
CENTRAL PENNSYLVANIA

CITY           SKY/WX    TMP DP  RH WIND       PRES   REMARKS
BRADFORD       NOT AVBL
DUBOIS         PTCLDY    15   7  70 S5        30.35F WCI   8
CLEARFIELD     PTCLDY    11   8  88 CALM      30.40F
JOHNSTOWN      CLEAR     19   7  59 SW10      30.34S WCI   7
ALTOONA        PTCLDY    19   9  65 CALM      30.41F
STATE COLLEGE  PTCLDY    17   9  68 CALM      30.42F
WILLIAMSPORT   PTCLDY    17  10  74 CALM      30.48S
SELINSGROVE    CLEAR     16  11  80 CALM      30.50S
FT INDIANTOWN  CLEAR     18  12  77 CALM      30.50S
CAPITAL CITY   PTCLDY    20  12  71 CALM      30.51F
HARRISBURG     PTCLDY    20  13  74 CALM      30.51S
YORK           PTCLDY    14  10  84 CALM      30.50F
$$

PAZ038>040-043-044-047-048-054-055-060>062-067>071-220800-
EASTERN PENNSYLVANIA

CITY           SKY/WX    TMP DP  RH WIND       PRES   REMARKS
SCRANTON       PTCLDY    21   9  59 CALM      30.42F
MOUNT POCONO   PTCLDY    15   7  70 W7        30.36F WCI   5
ALLENTOWN      CLEAR     22  10  60 SW6       30.49S WCI  14
QUAKERTOWN*    SUNNY     18  12  79 CALM      30.50S
READING        CLEAR     25   9  50 CALM      30.50F
LANCASTER      CLEAR     21  10  62 W3        30.51F
COATESVILLE    SUNNY     21  10  63 CALM      30.49F
POTTSTOWN      CLEAR     19  11  70 CALM      30.52S
BLUE BELL      CLEAR     21  18  86 CALM      30.51R
DOYLESTOWN     CLEAR     20  11  68 CALM      30.50S
WILLOW GROVE   NOT AVBL
NORTH PHILA    CLEAR     27   9  46 W3        30.54S
PHILADELPHIA   CLEAR     27  10  49 SW5       30.55S
$$


USA.gov is the U.S. government's official web portal to all federal, state and local government web resources and services.